Time,TemperatureF,DewpointF,PressureIn,WindDirection,WindDirectionDegrees,WindSpeedMPH,WindSpeedGustMPH,Humidity,HourlyPrecipIn,Conditions,Clouds,dailyrainin,SoftwareType,DateUTC
2013-06-17 00:00:00,72.0,69.2,29.94,NW,307,0.0,0.0,91,0.00,,,0.10,VWS V14.01,2013-06-17 05:00:00,
2013-06-17 00:03:00,71.1,68.7,29.95,NW,306,0.0,0.0,92,0.00,,,0.00,VWS V14.01,2013-06-17 05:03:00,
2013-06-17 00:08:00,71.1,68.7,29.95,NW,307,0.0,0.0,92,0.00,,,0.00,VWS V14.01,2013-06-17 05:08:00,
2013-06-17 00:13:00,71.0,68.6,29.95,NW,307,0.0,0.0,92,0.00,,,0.00,VWS V14.01,2013-06-17 05:13:00,
2013-06-17 00:19:00,71.1,68.7,29.95,NW,306,0.0,0.0,92,0.00,,,0.00,VWS V14.01,2013-06-17 05:19:00,
2013-06-17 00:24:00,71.0,68.6,29.95,NW,307,0.0,0.0,92,0.00,,,0.00,VWS V14.01,2013-06-17 05:24:00,
2013-06-17 00:29:00,71.0,68.6,29.94,NW,307,0.0,0.0,92,0.00,,,0.00,VWS V14.01,2013-06-17 05:29:00,
2013-06-17 00:30:00,71.5,68.7,29.93,NW,306,0.0,0.0,91,0.00,,,0.10,VWS V14.01,2013-06-17 05:30:00,
2013-06-17 00:34:00,71.0,68.6,29.94,NW,307,0.0,0.0,92,0.00,,,0.00,VWS V14.01,2013-06-17 05:34:00,
2013-06-17 00:39:00,71.0,68.6,29.94,NW,306,0.0,0.0,92,0.00,,,0.00,VWS V14.01,2013-06-17 05:39:00,
2013-06-17 00:44:00,71.0,68.6,29.94,NW,307,0.0,0.0,92,0.00,,,0.00,VWS V14.01,2013-06-17 05:44:00,
2013-06-17 00:49:00,71.4,69.3,29.93,NW,307,0.0,0.0,93,0.00,,,0.00,VWS V14.01,2013-06-17 05:49:00,
2013-06-17 00:54:00,71.7,69.6,29.93,NW,307,0.0,0.0,93,0.00,,,0.00,VWS V14.01,2013-06-17 05:54:00,
2013-06-17 00:59:00,71.9,69.8,29.93,NW,307,0.0,0.0,93,0.00,,,0.00,VWS V14.01,2013-06-17 05:59:00,
2013-06-17 01:00:00,71.2,68.8,29.95,NW,307,0.0,0.0,92,0.00,,,0.10,VWS V14.01,2013-06-17 06:00:00,
2013-06-17 01:04:00,71.8,69.7,29.93,NW,307,0.0,0.0,93,0.00,,,0.00,VWS V14.01,2013-06-17 06:04:00,
2013-06-17 01:09:00,71.8,69.7,29.92,NW,307,0.0,0.0,93,0.00,,,0.00,VWS V14.01,2013-06-17 06:09:00,
2013-06-17 01:14:00,71.7,69.6,29.93,NW,307,0.0,0.0,93,0.00,,,0.00,VWS V14.01,2013-06-17 06:14:00,
2013-06-17 01:19:00,71.5,69.1,29.93,NW,307,0.0,0.0,92,0.00,,,0.00,VWS V14.01,2013-06-17 06:19:00,
2013-06-17 01:24:00,71.3,68.9,29.92,NW,307,0.0,0.0,92,0.00,,,0.00,VWS V14.01,2013-06-17 06:24:00,
2013-06-17 01:29:00,71.2,68.8,29.91,NW,306,0.0,0.0,92,0.00,,,0.00,VWS V14.01,2013-06-17 06:29:00,
2013-06-17 01:30:00,71.0,68.6,29.94,NW,307,0.0,0.0,92,0.00,,,0.00,VWS V14.01,2013-06-17 06:30:00,
2013-06-17 01:34:00,71.2,68.8,29.92,NW,307,0.0,0.0,92,0.00,,,0.00,VWS V14.01,2013-06-17 06:34:00,
2013-06-17 01:39:00,71.1,68.7,29.92,NW,307,0.0,0.0,92,0.00,,,0.00,VWS V14.01,2013-06-17 06:39:00,
2013-06-17 01:44:00,71.1,68.7,29.92,NW,307,0.0,0.0,92,0.00,,,0.00,VWS V14.01,2013-06-17 06:44:00,
2013-06-17 01:49:00,71.1,68.7,29.92,NW,307,0.0,0.0,92,0.00,,,0.00,VWS V14.01,2013-06-17 06:49:00,
2013-06-17 01:54:00,71.1,68.7,29.92,NW,307,0.0,0.0,92,0.00,,,0.00,VWS V14.01,2013-06-17 06:54:00,
2013-06-17 01:59:00,71.0,68.6,29.92,NW,306,0.0,0.0,92,0.00,,,0.00,VWS V14.01,2013-06-17 06:59:00,
2013-06-17 02:00:00,71.9,69.8,29.93,NW,307,0.0,0.0,93,0.00,,,0.00,VWS V14.01,2013-06-17 07:00:00,
2013-06-17 02:04:00,71.0,68.6,29.92,NW,307,0.0,0.0,92,0.00,,,0.00,VWS V14.01,2013-06-17 07:04:00,
2013-06-17 02:09:00,70.8,68.4,29.92,NW,307,0.0,0.0,92,0.00,,,0.00,VWS V14.01,2013-06-17 07:09:00,
2013-06-17 02:14:00,70.8,68.4,29.93,NW,307,0.0,0.0,92,0.00,,,0.00,VWS V14.01,2013-06-17 07:14:00,
2013-06-17 02:19:00,70.8,68.4,29.93,NW,307,0.0,0.0,92,0.00,,,0.00,VWS V14.01,2013-06-17 07:19:00,
2013-06-17 02:24:00,70.8,68.4,29.93,NW,306,0.0,0.0,92,0.00,,,0.00,VWS V14.01,2013-06-17 07:24:00,
2013-06-17 02:29:00,70.7,68.3,29.94,NW,307,0.0,0.0,92,0.00,,,0.00,VWS V14.01,2013-06-17 07:29:00,
2013-06-17 02:30:00,71.2,68.8,29.91,NW,307,0.0,0.0,92,0.00,,,0.00,VWS V14.01,2013-06-17 07:30:00,
2013-06-17 02:34:00,70.7,68.6,29.93,NW,307,0.0,0.0,93,0.00,,,0.00,VWS V14.01,2013-06-17 07:34:00,
2013-06-17 02:39:00,70.8,68.7,29.93,NW,307,0.0,0.0,93,0.00,,,0.00,VWS V14.01,2013-06-17 07:39:00,
2013-06-17 02:44:00,70.8,68.7,29.93,NW,307,0.0,0.0,93,0.00,,,0.00,VWS V14.01,2013-06-17 07:44:00,
2013-06-17 02:49:00,70.7,68.6,29.93,NW,307,0.0,0.0,93,0.00,,,0.00,VWS V14.01,2013-06-17 07:49:00,
2013-06-17 02:54:00,70.6,68.5,29.92,NW,307,0.0,0.0,93,0.00,,,0.00,VWS V14.01,2013-06-17 07:54:00,
2013-06-17 02:59:00,70.6,68.5,29.92,NW,307,0.0,0.0,93,0.00,,,0.00,VWS V14.01,2013-06-17 07:59:00,
2013-06-17 03:00:00,71.0,68.6,29.92,NW,307,0.0,0.0,92,0.00,,,0.00,VWS V14.01,2013-06-17 08:00:00,
2013-06-17 03:04:00,70.6,68.5,29.92,NW,307,0.0,0.0,93,0.00,,,0.00,VWS V14.01,2013-06-17 08:04:00,
2013-06-17 03:09:00,70.6,68.5,29.92,NW,307,0.0,0.0,93,0.00,,,0.00,VWS V14.01,2013-06-17 08:09:00,
2013-06-17 03:14:00,70.6,68.5,29.93,NW,307,0.0,0.0,93,0.00,,,0.00,VWS V14.01,2013-06-17 08:14:00,
2013-06-17 03:19:00,70.6,68.5,29.93,NW,307,0.0,0.0,93,0.00,,,0.00,VWS V14.01,2013-06-17 08:19:00,
2013-06-17 03:24:00,70.5,68.4,29.92,NW,307,0.0,0.0,93,0.00,,,0.00,VWS V14.01,2013-06-17 08:24:00,
2013-06-17 03:29:00,70.5,68.4,29.92,NW,307,0.0,0.0,93,0.00,,,0.00,VWS V14.01,2013-06-17 08:29:00,
2013-06-17 03:30:00,70.7,68.3,29.94,NW,307,0.0,0.0,92,0.00,,,0.00,VWS V14.01,2013-06-17 08:30:00,
2013-06-17 03:34:00,70.4,68.3,29.92,NW,307,0.0,0.0,93,0.00,,,0.00,VWS V14.01,2013-06-17 08:34:00,
2013-06-17 03:39:00,70.4,68.3,29.92,NW,307,0.0,0.0,93,0.00,,,0.00,VWS V14.01,2013-06-17 08:39:00,
2013-06-17 03:44:00,70.3,68.2,29.92,NW,307,0.0,0.0,93,0.00,,,0.00,VWS V14.01,2013-06-17 08:44:00,
2013-06-17 03:49:00,70.3,68.2,29.92,NW,307,0.0,0.0,93,0.00,,,0.00,VWS V14.01,2013-06-17 08:49:00,
2013-06-17 03:54:00,70.1,67.7,29.91,NW,307,0.0,0.0,92,0.00,,,0.00,VWS V14.01,2013-06-17 08:54:00,
2013-06-17 03:59:00,70.0,67.9,29.91,NW,307,0.0,0.0,93,0.00,,,0.00,VWS V14.01,2013-06-17 08:59:00,
2013-06-17 04:00:00,70.6,68.5,29.92,NW,307,0.0,0.0,93,0.00,,,0.00,VWS V14.01,2013-06-17 09:00:00,
2013-06-17 04:04:00,69.9,67.8,29.91,NW,307,0.0,0.0,93,0.00,,,0.00,VWS V14.01,2013-06-17 09:04:00,
2013-06-17 04:09:00,69.9,67.8,29.92,NW,307,0.0,0.0,93,0.00,,,0.00,VWS V14.01,2013-06-17 09:09:00,
2013-06-17 04:14:00,70.0,67.9,29.91,NW,307,0.0,4.0,93,0.00,,,0.00,VWS V14.01,2013-06-17 09:14:00,
2013-06-17 04:19:00,70.0,67.9,29.91,NW,307,0.0,4.0,93,0.00,,,0.00,VWS V14.01,2013-06-17 09:19:00,
2013-06-17 04:24:00,70.0,67.9,29.91,NW,307,0.0,4.0,93,0.00,,,0.00,VWS V14.01,2013-06-17 09:24:00,
2013-06-17 04:29:00,70.0,67.9,29.91,NW,307,0.0,4.0,93,0.00,,,0.00,VWS V14.01,2013-06-17 09:29:00,
2013-06-17 04:30:00,70.4,68.3,29.92,NW,307,0.0,0.0,93,0.00,,,0.00,VWS V14.01,2013-06-17 09:30:00,
2013-06-17 04:34:00,69.9,67.8,29.90,NW,307,0.0,0.0,93,0.00,,,0.00,VWS V14.01,2013-06-17 09:34:00,
2013-06-17 04:39:00,69.9,67.8,29.90,NW,307,0.0,0.0,93,0.00,,,0.00,VWS V14.01,2013-06-17 09:39:00,
2013-06-17 04:44:00,69.8,67.7,29.91,NW,307,0.0,0.0,93,0.00,,,0.00,VWS V14.01,2013-06-17 09:44:00,
2013-06-17 04:49:00,69.7,67.6,29.91,NW,307,0.0,0.0,93,0.00,,,0.00,VWS V14.01,2013-06-17 09:49:00,
2013-06-17 04:54:00,69.6,67.5,29.91,NW,307,0.0,0.0,93,0.00,,,0.00,VWS V14.01,2013-06-17 09:54:00,
2013-06-17 04:59:00,69.6,67.5,29.91,NW,307,0.0,0.0,93,0.00,,,0.00,VWS V14.01,2013-06-17 09:59:00,
2013-06-17 05:00:00,70.0,67.9,29.91,NW,307,0.0,0.0,93,0.00,,,0.00,VWS V14.01,2013-06-17 10:00:00,
2013-06-17 05:04:00,69.5,67.4,29.91,NW,307,0.0,0.0,93,0.00,,,0.00,VWS V14.01,2013-06-17 10:04:00,
2013-06-17 05:09:00,69.5,67.4,29.91,NW,307,0.0,0.0,93,0.00,,,0.00,VWS V14.01,2013-06-17 10:09:00,
2013-06-17 05:14:00,69.4,67.3,29.91,NW,307,0.0,0.0,93,0.00,,,0.00,VWS V14.01,2013-06-17 10:14:00,
2013-06-17 05:19:00,69.3,67.2,29.91,NW,307,0.0,0.0,93,0.00,,,0.00,VWS V14.01,2013-06-17 10:19:00,
2013-06-17 05:24:00,69.2,67.1,29.91,NW,307,0.0,0.0,93,0.00,,,0.00,VWS V14.01,2013-06-17 10:24:00,
2013-06-17 05:29:00,69.2,67.1,29.91,NW,307,0.0,0.0,93,0.00,,,0.00,VWS V14.01,2013-06-17 10:29:00,
2013-06-17 05:30:00,70.0,67.9,29.91,NW,307,0.0,4.0,93,0.00,,,0.00,VWS V14.01,2013-06-17 10:30:00,
2013-06-17 05:34:00,69.2,67.1,29.91,NW,306,0.0,0.0,93,0.00,,,0.00,VWS V14.01,2013-06-17 10:34:00,
2013-06-17 05:40:00,69.1,67.0,29.91,NW,307,0.0,0.0,93,0.00,,,0.00,VWS V14.01,2013-06-17 10:40:00,
2013-06-17 05:45:00,69.0,66.9,29.91,NW,307,0.0,0.0,93,0.00,,,0.00,VWS V14.01,2013-06-17 10:45:00,
2013-06-17 05:50:00,69.0,66.9,29.92,NW,307,0.0,0.0,93,0.00,,,0.00,VWS V14.01,2013-06-17 10:50:00,
2013-06-17 05:55:00,69.0,66.9,29.92,NW,307,0.0,0.0,93,0.00,,,0.00,VWS V14.01,2013-06-17 10:55:00,
2013-06-17 06:00:00,69.0,66.9,29.92,NW,307,0.0,0.0,93,0.00,,,0.00,VWS V14.01,2013-06-17 11:00:00,
2013-06-17 06:05:00,69.0,66.9,29.92,NW,307,0.0,0.0,93,0.00,,,0.00,VWS V14.01,2013-06-17 11:05:00,
2013-06-17 06:10:00,69.0,66.9,29.92,NW,307,0.0,0.0,93,0.00,,,0.00,VWS V14.01,2013-06-17 11:10:00,
2013-06-17 06:15:00,69.0,66.9,29.92,NW,307,0.0,0.0,93,0.00,,,0.00,VWS V14.01,2013-06-17 11:15:00,
2013-06-17 06:20:00,69.0,66.9,29.92,NW,307,0.0,0.0,93,0.00,,,0.00,VWS V14.01,2013-06-17 11:20:00,
2013-06-17 06:25:00,69.1,67.0,29.92,NW,307,0.0,0.0,93,0.00,,,0.00,VWS V14.01,2013-06-17 11:25:00,
2013-06-17 06:30:00,69.1,67.0,29.92,NW,307,0.0,0.0,93,0.00,,,0.00,VWS V14.01,2013-06-17 11:30:00,
2013-06-17 06:35:00,69.2,67.1,29.92,NW,307,0.0,0.0,93,0.00,,,0.00,VWS V14.01,2013-06-17 11:35:00,
2013-06-17 06:40:00,69.3,67.5,29.92,NW,306,0.0,0.0,94,0.00,,,0.00,VWS V14.01,2013-06-17 11:40:00,
2013-06-17 06:45:00,69.5,67.7,29.93,NW,306,0.0,0.0,94,0.00,,,0.00,VWS V14.01,2013-06-17 11:45:00,
2013-06-17 06:50:00,69.6,67.5,29.93,NW,306,0.0,0.0,93,0.00,,,0.00,VWS V14.01,2013-06-17 11:50:00,
2013-06-17 06:55:00,69.7,67.6,29.93,NW,307,0.0,0.0,93,0.00,,,0.00,VWS V14.01,2013-06-17 11:55:00,
2013-06-17 07:00:00,69.7,67.6,29.93,NW,307,0.0,0.0,93,0.00,,,0.00,VWS V14.01,2013-06-17 12:00:00,
2013-06-17 07:05:00,69.8,67.7,29.93,NW,307,0.0,0.0,93,0.00,,,0.00,VWS V14.01,2013-06-17 12:05:00,
2013-06-17 07:10:00,69.9,68.1,29.93,NW,307,0.0,0.0,94,0.00,,,0.00,VWS V14.01,2013-06-17 12:10:00,
2013-06-17 07:15:00,70.1,68.3,29.92,NW,307,0.0,0.0,94,0.00,,,0.00,VWS V14.01,2013-06-17 12:15:00,
2013-06-17 07:20:00,70.3,68.5,29.92,NW,305,0.0,0.0,94,0.00,,,0.00,VWS V14.01,2013-06-17 12:20:00,
2013-06-17 07:25:00,70.4,68.6,29.93,NW,305,0.0,0.0,94,0.00,,,0.00,VWS V14.01,2013-06-17 12:25:00,
2013-06-17 07:30:00,70.7,68.9,29.93,NW,305,0.0,0.0,94,0.00,,,0.00,VWS V14.01,2013-06-17 12:30:00,
2013-06-17 07:35:00,70.9,69.1,29.93,NW,305,0.0,0.0,94,0.00,,,0.00,VWS V14.01,2013-06-17 12:35:00,
2013-06-17 07:40:00,71.1,69.3,29.93,NW,305,0.0,0.0,94,0.00,,,0.00,VWS V14.01,2013-06-17 12:40:00,
2013-06-17 07:45:00,71.3,69.5,29.93,NW,305,0.0,0.0,94,0.00,,,0.00,VWS V14.01,2013-06-17 12:45:00,
2013-06-17 07:50:00,71.5,69.7,29.93,NW,305,0.0,0.0,94,0.00,,,0.00,VWS V14.01,2013-06-17 12:50:00,
2013-06-17 07:55:00,71.6,69.8,29.93,NW,305,0.0,0.0,94,0.00,,,0.00,VWS V14.01,2013-06-17 12:55:00,
2013-06-17 08:00:00,71.7,69.9,29.93,NW,305,0.0,0.0,94,0.00,,,0.00,VWS V14.01,2013-06-17 13:00:00,
2013-06-17 08:05:00,71.9,70.1,29.93,NW,305,0.0,0.0,94,0.00,,,0.00,VWS V14.01,2013-06-17 13:05:00,
2013-06-17 08:10:00,72.0,70.2,29.93,NW,305,0.0,0.0,94,0.00,,,0.00,VWS V14.01,2013-06-17 13:10:00,
2013-06-17 08:15:00,72.1,70.3,29.93,NW,305,0.0,0.0,94,0.00,,,0.00,VWS V14.01,2013-06-17 13:15:00,
2013-06-17 08:20:00,72.3,70.5,29.93,NW,305,0.0,0.0,94,0.00,,,0.00,VWS V14.01,2013-06-17 13:20:00,
2013-06-17 08:25:00,72.6,70.8,29.93,NW,305,0.0,0.0,94,0.00,,,0.00,VWS V14.01,2013-06-17 13:25:00,
2013-06-17 08:30:00,73.0,71.2,29.93,NW,305,0.0,0.0,94,0.00,,,0.00,VWS V14.01,2013-06-17 13:30:00,
2013-06-17 08:35:00,73.2,71.4,29.93,NW,305,0.0,2.0,94,0.00,,,0.00,VWS V14.01,2013-06-17 13:35:00,
2013-06-17 08:40:00,73.2,71.4,29.93,WNW,302,0.0,2.0,94,0.00,,,0.00,VWS V14.01,2013-06-17 13:40:00,
2013-06-17 08:45:00,73.4,71.6,29.93,WNW,302,0.0,2.0,94,0.00,,,0.00,VWS V14.01,2013-06-17 13:45:00,
2013-06-17 08:50:00,73.8,72.0,29.94,WNW,302,0.0,2.0,94,0.00,,,0.00,VWS V14.01,2013-06-17 13:50:00,
2013-06-17 08:55:00,74.1,72.3,29.93,WNW,302,0.0,2.0,94,0.00,,,0.00,VWS V14.01,2013-06-17 13:55:00,
2013-06-17 09:00:00,74.5,72.7,29.93,North,5,0.0,2.0,94,0.00,,,0.00,VWS V14.01,2013-06-17 14:00:00,
2013-06-17 09:05:00,74.9,72.7,29.93,North,5,0.0,2.0,93,0.00,,,0.00,VWS V14.01,2013-06-17 14:05:00,
2013-06-17 09:10:00,75.3,72.5,29.93,East,91,2.0,4.0,91,0.00,,,0.00,VWS V14.01,2013-06-17 14:10:00,
2013-06-17 09:15:00,75.6,72.5,29.93,East,92,2.0,4.0,90,0.00,,,0.00,VWS V14.01,2013-06-17 14:15:00,
2013-06-17 09:20:00,75.9,72.4,29.93,East,92,0.0,4.0,89,0.00,,,0.00,VWS V14.01,2013-06-17 14:20:00,
2013-06-17 09:25:00,76.2,72.4,29.93,East,93,0.0,4.0,88,0.00,,,0.00,VWS V14.01,2013-06-17 14:25:00,
2013-06-17 09:30:00,76.4,72.2,29.93,East,92,0.0,0.0,87,0.00,,,0.00,VWS V14.01,2013-06-17 14:30:00,
2013-06-17 09:35:00,76.7,72.9,29.93,East,92,1.0,1.0,88,0.00,,,0.00,VWS V14.01,2013-06-17 14:35:00,
2013-06-17 09:40:00,77.1,72.9,29.93,East,94,0.0,2.0,87,0.00,,,0.00,VWS V14.01,2013-06-17 14:40:00,
2013-06-17 09:45:00,77.3,72.4,29.93,East,94,0.0,2.0,85,0.00,,,0.00,VWS V14.01,2013-06-17 14:45:00,
2013-06-17 09:50:00,77.5,72.6,29.92,East,94,0.0,2.0,85,0.00,,,0.00,VWS V14.01,2013-06-17 14:50:00,
2013-06-17 09:55:00,77.8,72.9,29.92,East,95,0.0,2.0,85,0.00,,,0.00,VWS V14.01,2013-06-17 14:55:00,
2013-06-17 10:00:00,78.1,72.9,29.92,East,95,0.0,0.0,84,0.00,,,0.00,VWS V14.01,2013-06-17 15:00:00,
2013-06-17 10:05:00,78.5,73.6,29.92,East,95,0.0,1.0,85,0.00,,,0.00,VWS V14.01,2013-06-17 15:05:00,
2013-06-17 10:10:00,79.0,73.0,29.92,East,95,0.0,4.0,82,0.00,,,0.00,VWS V14.01,2013-06-17 15:10:00,
2013-06-17 10:15:00,79.2,72.9,29.92,East,96,0.0,4.0,81,0.00,,,0.00,VWS V14.01,2013-06-17 15:15:00,
2013-06-17 10:20:00,79.4,73.4,29.92,East,100,0.0,4.0,82,0.00,,,0.00,VWS V14.01,2013-06-17 15:20:00,
2013-06-17 10:26:00,79.9,73.6,29.92,East,100,0.0,4.0,81,0.00,,,0.00,VWS V14.01,2013-06-17 15:26:00,
2013-06-17 10:30:00,76.4,72.2,29.93,East,92,0.0,4.0,87,0.00,,,0.00,VWS V14.01,2013-06-17 15:30:00,
2013-06-17 10:31:00,80.0,72.9,29.92,East,100,0.0,0.0,79,0.00,,,0.00,VWS V14.01,2013-06-17 15:31:00,
2013-06-17 10:36:00,80.3,73.2,29.92,ESE,105,0.0,2.0,79,0.00,,,0.00,VWS V14.01,2013-06-17 15:36:00,
2013-06-17 10:41:00,80.7,73.6,29.92,ESE,113,0.0,4.0,79,0.00,,,0.00,VWS V14.01,2013-06-17 15:41:00,
2013-06-17 10:46:00,81.2,73.3,29.92,ESE,113,0.0,4.0,77,0.00,,,0.00,VWS V14.01,2013-06-17 15:46:00,
2013-06-17 10:51:00,81.6,74.1,29.92,ESE,113,0.0,4.0,78,0.00,,,0.00,VWS V14.01,2013-06-17 15:51:00,
2013-06-17 10:56:00,82.0,74.1,29.92,ESE,111,0.0,4.0,77,0.00,,,0.00,VWS V14.01,2013-06-17 15:56:00,
2013-06-17 11:00:00,78.0,72.8,29.92,East,95,0.0,2.0,84,0.00,,,0.00,VWS V14.01,2013-06-17 16:00:00,
2013-06-17 11:01:00,82.2,74.3,29.92,SE,132,8.0,8.0,77,0.00,,,0.00,VWS V14.01,2013-06-17 16:01:00,
2013-06-17 11:06:00,82.7,73.6,29.93,SE,136,0.0,8.0,74,0.00,,,0.00,VWS V14.01,2013-06-17 16:06:00,
2013-06-17 11:11:00,82.9,73.4,29.92,SSE,163,5.0,8.0,73,0.00,,,0.00,VWS V14.01,2013-06-17 16:11:00,
2013-06-17 11:16:00,82.9,72.9,29.92,ESE,119,0.0,8.0,72,0.00,,,0.00,VWS V14.01,2013-06-17 16:16:00,
2013-06-17 11:21:00,82.6,73.1,29.93,ESE,111,1.0,8.0,73,0.00,,,0.00,VWS V14.01,2013-06-17 16:21:00,
2013-06-17 11:26:00,82.3,72.4,29.93,East,98,4.0,8.0,72,0.00,,,0.00,VWS V14.01,2013-06-17 16:26:00,
2013-06-17 11:30:00,80.0,73.3,29.92,East,100,0.0,4.0,80,0.00,,,0.00,VWS V14.01,2013-06-17 16:30:00,
2013-06-17 11:31:00,82.1,72.6,29.93,East,101,2.0,2.0,73,0.00,,,0.00,VWS V14.01,2013-06-17 16:31:00,
2013-06-17 11:36:00,82.1,73.0,29.93,ESE,103,0.0,2.0,74,0.00,,,0.00,VWS V14.01,2013-06-17 16:36:00,
2013-06-17 11:41:00,82.3,72.0,29.93,SE,126,0.0,6.0,71,0.00,,,0.00,VWS V14.01,2013-06-17 16:41:00,
2013-06-17 11:46:00,82.3,72.8,29.93,SE,126,4.0,6.0,73,0.00,,,0.00,VWS V14.01,2013-06-17 16:46:00,
2013-06-17 11:51:00,82.4,72.1,29.93,SE,134,0.0,6.0,71,0.00,,,0.00,VWS V14.01,2013-06-17 16:51:00,
2013-06-17 11:56:00,82.3,72.0,29.93,SE,137,0.0,6.0,71,0.00,,,0.00,VWS V14.01,2013-06-17 16:56:00,
2013-06-17 12:00:00,82.2,73.9,29.92,ESE,113,1.0,4.0,76,0.00,,,0.00,VWS V14.01,2013-06-17 17:00:00,
2013-06-17 12:01:00,82.4,72.5,29.93,SE,137,0.0,0.0,72,0.00,,,0.00,VWS V14.01,2013-06-17 17:01:00,
2013-06-17 12:06:00,82.5,73.0,29.93,SE,140,1.0,1.0,73,0.00,,,0.00,VWS V14.01,2013-06-17 17:06:00,
2013-06-17 12:11:00,82.5,71.7,29.93,SE,140,0.0,2.0,70,0.00,,,0.00,VWS V14.01,2013-06-17 17:11:00,
2013-06-17 12:16:00,82.5,71.7,29.93,SE,140,1.0,2.0,70,0.00,,,0.00,VWS V14.01,2013-06-17 17:16:00,
2013-06-17 12:21:00,82.3,72.0,29.93,SE,140,0.0,2.0,71,0.00,,,0.00,VWS V14.01,2013-06-17 17:21:00,
2013-06-17 12:26:00,82.3,72.0,29.93,SE,140,0.0,2.0,71,0.00,,,0.00,VWS V14.01,2013-06-17 17:26:00,
2013-06-17 12:30:00,82.1,72.6,29.93,East,95,0.0,8.0,73,0.00,,,0.00,VWS V14.01,2013-06-17 17:30:00,
2013-06-17 12:31:00,82.4,72.5,29.93,SE,140,0.0,0.0,72,0.00,,,0.00,VWS V14.01,2013-06-17 17:31:00,
2013-06-17 12:36:00,82.2,71.4,29.93,SE,140,0.0,2.0,70,0.00,,,0.00,VWS V14.01,2013-06-17 17:36:00,
2013-06-17 12:41:00,82.3,72.4,29.93,SE,140,0.0,2.0,72,0.00,,,0.00,VWS V14.01,2013-06-17 17:41:00,
2013-06-17 12:46:00,82.4,72.9,29.93,SE,140,0.0,2.0,73,0.00,,,0.00,VWS V14.01,2013-06-17 17:46:00,
2013-06-17 12:51:00,82.4,72.1,29.93,SE,140,0.0,2.0,71,0.00,,,0.00,VWS V14.01,2013-06-17 17:51:00,
2013-06-17 12:56:00,82.3,72.4,29.93,SE,140,0.0,2.0,72,0.00,,,0.00,VWS V14.01,2013-06-17 17:56:00,
2013-06-17 13:00:00,82.4,72.5,29.93,SE,137,0.0,6.0,72,0.00,,,0.00,VWS V14.01,2013-06-17 18:00:00,
2013-06-17 13:01:00,82.4,72.5,29.93,SE,140,0.0,0.0,72,0.00,,,0.00,VWS V14.01,2013-06-17 18:01:00,
2013-06-17 13:06:00,82.5,72.2,29.93,SE,140,0.0,1.0,71,0.00,,,0.00,VWS V14.01,2013-06-17 18:06:00,
2013-06-17 13:11:00,82.6,72.2,29.93,SE,140,0.0,1.0,71,0.00,,,0.00,VWS V14.01,2013-06-17 18:11:00,
2013-06-17 13:16:00,82.7,71.9,29.93,SE,140,0.0,1.0,70,0.00,,,0.00,VWS V14.01,2013-06-17 18:16:00,
2013-06-17 13:21:00,82.8,72.4,29.93,SE,140,0.0,1.0,71,0.00,,,0.00,VWS V14.01,2013-06-17 18:21:00,
2013-06-17 13:26:00,82.9,71.3,29.93,SE,140,0.0,1.0,68,0.00,,,0.00,VWS V14.01,2013-06-17 18:26:00,
2013-06-17 13:30:00,82.4,72.5,29.93,SE,140,0.0,2.0,72,0.00,,,0.00,VWS V14.01,2013-06-17 18:30:00,
2013-06-17 13:31:00,82.9,71.7,29.93,SE,140,0.0,0.0,69,0.00,,,0.00,VWS V14.01,2013-06-17 18:31:00,
2013-06-17 13:36:00,83.1,72.3,29.93,SE,140,0.0,0.0,70,0.00,,,0.00,VWS V14.01,2013-06-17 18:36:00,
2013-06-17 13:41:00,83.1,72.3,29.93,SE,140,0.0,0.0,70,0.00,,,0.00,VWS V14.01,2013-06-17 18:41:00,
2013-06-17 13:46:00,83.1,71.9,29.92,SE,140,0.0,0.0,69,0.00,,,0.00,VWS V14.01,2013-06-17 18:46:00,
2013-06-17 13:51:00,83.2,72.0,29.92,SE,140,0.0,0.0,69,0.00,,,0.00,VWS V14.01,2013-06-17 18:51:00,
2013-06-17 13:56:00,83.0,71.8,29.91,SE,140,0.0,1.0,69,0.00,,,0.00,VWS V14.01,2013-06-17 18:56:00,
2013-06-17 14:00:00,82.4,72.5,29.93,SE,140,0.0,2.0,72,0.00,,,0.00,VWS V14.01,2013-06-17 19:00:00,
2013-06-17 14:01:00,82.8,72.4,29.91,SE,140,0.0,0.0,71,0.00,,,0.00,VWS V14.01,2013-06-17 19:01:00,
2013-06-17 14:06:00,82.6,72.7,29.91,SE,140,0.0,0.0,72,0.00,,,0.00,VWS V14.01,2013-06-17 19:06:00,
2013-06-17 14:11:00,82.6,72.2,29.91,SE,140,0.0,0.0,71,0.00,,,0.00,VWS V14.01,2013-06-17 19:11:00,
2013-06-17 14:16:00,82.7,72.8,29.90,SE,140,2.0,2.0,72,0.00,,,0.00,VWS V14.01,2013-06-17 19:16:00,
2013-06-17 14:21:00,82.5,71.7,29.91,SE,140,0.0,4.0,70,0.00,,,0.00,VWS V14.01,2013-06-17 19:21:00,
2013-06-17 14:27:00,82.4,72.9,29.90,South,180,0.0,4.0,73,0.00,,,0.00,VWS V14.01,2013-06-17 19:27:00,
2013-06-17 14:30:00,82.9,71.7,29.93,SE,140,0.0,1.0,69,0.00,,,0.00,VWS V14.01,2013-06-17 19:30:00,
2013-06-17 14:32:00,82.2,72.7,29.90,West,271,5.0,5.0,73,0.00,,,0.00,VWS V14.01,2013-06-17 19:32:00,
2013-06-17 14:37:00,82.0,72.9,29.90,WNW,290,0.0,7.0,74,0.00,,,0.00,VWS V14.01,2013-06-17 19:37:00,
2013-06-17 14:42:00,81.8,72.3,29.89,WNW,292,2.0,7.0,73,0.00,,,0.00,VWS V14.01,2013-06-17 19:42:00,
2013-06-17 14:47:00,81.6,72.1,29.89,WNW,292,0.0,7.0,73,0.00,,,0.00,VWS V14.01,2013-06-17 19:47:00,
2013-06-17 14:52:00,81.5,72.0,29.89,WNW,286,5.0,7.0,73,0.00,,,0.00,VWS V14.01,2013-06-17 19:52:00,
2013-06-17 14:57:00,81.4,71.9,29.88,WNW,291,0.0,7.0,73,0.00,,,0.00,VWS V14.01,2013-06-17 19:57:00,
2013-06-17 15:00:00,82.8,72.0,29.91,SE,140,0.0,1.0,70,0.00,,,0.00,VWS V14.01,2013-06-17 20:00:00,
2013-06-17 15:02:00,81.2,72.1,29.88,WNW,291,5.0,5.0,74,0.00,,,0.00,VWS V14.01,2013-06-17 20:02:00,
2013-06-17 15:07:00,81.1,72.0,29.88,WNW,291,0.0,5.0,74,0.00,,,0.00,VWS V14.01,2013-06-17 20:07:00,
2013-06-17 15:12:00,81.0,71.9,29.88,WNW,291,4.0,5.0,74,0.00,,,0.00,VWS V14.01,2013-06-17 20:12:00,
2013-06-17 15:17:00,80.9,71.8,29.88,WNW,298,0.0,7.0,74,0.00,,,0.00,VWS V14.01,2013-06-17 20:17:00,
2013-06-17 15:22:00,80.9,72.2,29.88,WNW,298,0.0,7.0,75,0.00,,,0.00,VWS V14.01,2013-06-17 20:22:00,
2013-06-17 15:27:00,80.9,72.6,29.88,WNW,298,0.0,7.0,76,0.00,,,0.00,VWS V14.01,2013-06-17 20:27:00,
2013-06-17 15:30:00,82.3,72.4,29.90,South,180,0.0,4.0,72,0.00,,,0.00,VWS V14.01,2013-06-17 20:30:00,
2013-06-17 15:32:00,81.0,72.7,29.88,WNW,298,0.0,0.0,76,0.00,,,0.00,VWS V14.01,2013-06-17 20:32:00,
2013-06-17 15:37:00,81.0,72.7,29.88,WNW,298,0.0,2.0,76,0.00,,,0.00,VWS V14.01,2013-06-17 20:37:00,
2013-06-17 15:42:00,81.0,72.3,29.87,WNW,298,0.0,5.0,75,0.00,,,0.00,VWS V14.01,2013-06-17 20:42:00,
2013-06-17 15:47:00,81.1,72.4,29.87,WNW,298,0.0,5.0,75,0.00,,,0.00,VWS V14.01,2013-06-17 20:47:00,
2013-06-17 15:52:00,81.1,72.0,29.88,WNW,297,1.0,6.0,74,0.00,,,0.00,VWS V14.01,2013-06-17 20:52:00,
2013-06-17 15:57:00,81.1,72.0,29.87,WNW,297,4.0,6.0,74,0.00,,,0.00,VWS V14.01,2013-06-17 20:57:00,
2013-06-17 16:00:00,81.2,72.1,29.88,WNW,291,2.0,7.0,74,0.00,,,0.00,VWS V14.01,2013-06-17 21:00:00,
2013-06-17 16:02:00,81.2,72.1,29.88,WNW,297,0.0,4.0,74,0.00,,,0.00,VWS V14.01,2013-06-17 21:02:00,
2013-06-17 16:07:00,81.2,72.1,29.88,WNW,297,1.0,6.0,74,0.00,,,0.00,VWS V14.01,2013-06-17 21:07:00,
2013-06-17 16:12:00,81.2,71.7,29.88,WNW,297,0.0,6.0,73,0.00,,,0.00,VWS V14.01,2013-06-17 21:12:00,
2013-06-17 16:17:00,81.2,71.3,29.88,WNW,297,4.0,6.0,72,0.00,,,0.00,VWS V14.01,2013-06-17 21:17:00,
2013-06-17 16:22:00,81.2,71.7,29.88,WNW,297,2.0,6.0,73,0.00,,,0.00,VWS V14.01,2013-06-17 21:22:00,
2013-06-17 16:27:00,81.2,71.7,29.88,WNW,297,0.0,6.0,73,0.00,,,0.00,VWS V14.01,2013-06-17 21:27:00,
2013-06-17 16:30:00,80.9,72.6,29.88,WNW,298,0.0,7.0,76,0.00,,,0.00,VWS V14.01,2013-06-17 21:30:00,
2013-06-17 16:32:00,81.2,71.7,29.88,WNW,297,1.0,4.0,73,0.00,,,0.00,VWS V14.01,2013-06-17 21:32:00,
2013-06-17 16:37:00,81.2,72.1,29.88,WNW,297,4.0,4.0,74,0.00,,,0.00,VWS V14.01,2013-06-17 21:37:00,
2013-06-17 16:42:00,81.1,71.6,29.88,WNW,297,0.0,6.0,73,0.00,,,0.00,VWS V14.01,2013-06-17 21:42:00,
2013-06-17 16:47:00,81.1,72.0,29.88,WNW,296,0.0,6.0,74,0.00,,,0.00,VWS V14.01,2013-06-17 21:47:00,
2013-06-17 16:52:00,81.0,71.5,29.88,WNW,296,0.0,6.0,73,0.00,,,0.00,VWS V14.01,2013-06-17 21:52:00,
2013-06-17 16:57:00,81.1,72.4,29.88,WNW,296,0.0,6.0,75,0.00,,,0.00,VWS V14.01,2013-06-17 21:57:00,
2013-06-17 17:00:00,81.2,72.1,29.88,WNW,297,0.0,6.0,74,0.00,,,0.00,VWS V14.01,2013-06-17 22:00:00,
2013-06-17 17:02:00,81.2,72.5,29.88,WNW,296,0.0,0.0,75,0.00,,,0.00,VWS V14.01,2013-06-17 22:02:00,
2013-06-17 17:07:00,81.2,72.5,29.89,WNW,297,0.0,2.0,75,0.00,,,0.00,VWS V14.01,2013-06-17 22:07:00,
2013-06-17 17:12:00,81.2,72.1,29.89,NW,306,0.0,2.0,74,0.00,,,0.00,VWS V14.01,2013-06-17 22:12:00,
2013-06-17 17:17:00,81.1,71.6,29.89,ESE,102,0.0,4.0,73,0.00,,,0.00,VWS V14.01,2013-06-17 22:17:00,
2013-06-17 17:22:00,81.1,71.6,29.89,ESE,104,0.0,4.0,73,0.00,,,0.00,VWS V14.01,2013-06-17 22:22:00,
2013-06-17 17:27:00,81.1,71.6,29.89,ESE,104,0.0,4.0,73,0.00,,,0.00,VWS V14.01,2013-06-17 22:27:00,
2013-06-17 17:30:00,81.2,71.7,29.88,WNW,297,0.0,6.0,73,0.00,,,0.00,VWS V14.01,2013-06-17 22:30:00,
2013-06-17 17:32:00,81.1,70.8,29.89,ESE,104,0.0,2.0,71,0.00,,,0.00,VWS V14.01,2013-06-17 22:32:00,
2013-06-17 17:37:00,80.9,70.6,29.88,ESE,104,0.0,2.0,71,0.00,,,0.00,VWS V14.01,2013-06-17 22:37:00,
2013-06-17 17:42:00,80.9,70.2,29.89,ESE,104,0.0,2.0,70,0.00,,,0.00,VWS V14.01,2013-06-17 22:42:00,
2013-06-17 17:47:00,80.9,70.2,29.89,ESE,104,0.0,2.0,70,0.00,,,0.00,VWS V14.01,2013-06-17 22:47:00,
2013-06-17 17:52:00,80.9,70.2,29.89,ESE,104,0.0,2.0,70,0.00,,,0.00,VWS V14.01,2013-06-17 22:52:00,
2013-06-17 17:57:00,80.9,70.6,29.89,East,101,0.0,2.0,71,0.00,,,0.00,VWS V14.01,2013-06-17 22:57:00,
2013-06-17 18:00:00,81.2,72.9,29.88,WNW,296,0.0,6.0,76,0.00,,,0.00,VWS V14.01,2013-06-17 23:00:00,
2013-06-17 18:02:00,80.7,69.6,29.89,East,101,0.0,0.0,69,0.00,,,0.00,VWS V14.01,2013-06-17 23:02:00,
2013-06-17 18:07:00,80.7,70.0,29.89,East,101,0.0,0.0,70,0.00,,,0.00,VWS V14.01,2013-06-17 23:07:00,
2013-06-17 18:12:00,80.7,71.2,29.89,East,101,0.0,0.0,73,0.00,,,0.00,VWS V14.01,2013-06-17 23:12:00,
2013-06-17 18:17:00,80.7,71.2,29.89,East,101,0.0,0.0,73,0.00,,,0.00,VWS V14.01,2013-06-17 23:17:00,
2013-06-17 18:22:00,80.6,72.3,29.89,East,101,0.0,0.0,76,0.00,,,0.00,VWS V14.01,2013-06-17 23:22:00,
2013-06-17 18:27:00,80.3,72.1,29.89,East,101,0.0,0.0,76,0.00,,,0.00,VWS V14.01,2013-06-17 23:27:00,
2013-06-17 18:30:00,81.1,71.6,29.89,ESE,104,0.0,4.0,73,0.00,,,0.00,VWS V14.01,2013-06-17 23:30:00,
2013-06-17 18:32:00,80.1,72.2,29.89,East,101,0.0,0.0,77,0.00,,,0.00,VWS V14.01,2013-06-17 23:32:00,
2013-06-17 18:37:00,79.8,72.3,29.89,East,101,0.0,0.0,78,0.00,,,0.00,VWS V14.01,2013-06-17 23:37:00,
2013-06-17 18:42:00,79.4,71.6,29.89,East,101,0.0,0.0,77,0.00,,,0.00,VWS V14.01,2013-06-17 23:42:00,
2013-06-17 18:47:00,79.1,71.7,29.89,East,101,0.0,0.0,78,0.00,,,0.00,VWS V14.01,2013-06-17 23:47:00,
2013-06-17 18:52:00,78.8,71.7,29.89,East,101,0.0,0.0,79,0.00,,,0.00,VWS V14.01,2013-06-17 23:52:00,
2013-06-17 18:57:00,78.7,71.6,29.89,East,101,0.0,0.0,79,0.00,,,0.00,VWS V14.01,2013-06-17 23:57:00,
2013-06-17 19:00:00,80.8,70.1,29.89,East,101,0.0,2.0,70,0.00,,,0.00,VWS V14.01,2013-06-18 00:00:00,
2013-06-17 19:02:00,78.4,71.7,29.89,East,101,0.0,0.0,80,0.00,,,0.00,VWS V14.01,2013-06-18 00:02:00,
2013-06-17 19:08:00,78.2,71.9,29.89,East,101,0.0,0.0,81,0.00,,,0.00,VWS V14.01,2013-06-18 00:08:00,
2013-06-17 19:13:00,78.0,71.7,29.89,East,101,0.0,0.0,81,0.00,,,0.00,VWS V14.01,2013-06-18 00:13:00,
2013-06-17 19:18:00,77.8,71.9,29.89,East,101,0.0,0.0,82,0.00,,,0.00,VWS V14.01,2013-06-18 00:18:00,
2013-06-17 19:23:00,77.6,71.7,29.89,East,101,0.0,0.0,82,0.00,,,0.00,VWS V14.01,2013-06-18 00:23:00,
2013-06-17 19:28:00,77.5,71.2,29.90,East,101,0.0,0.0,81,0.00,,,0.00,VWS V14.01,2013-06-18 00:28:00,
2013-06-17 19:30:00,80.2,72.3,29.89,East,101,0.0,0.0,77,0.00,,,0.00,VWS V14.01,2013-06-18 00:30:00,
2013-06-17 19:33:00,77.3,71.4,29.90,East,101,0.0,0.0,82,0.00,,,0.00,VWS V14.01,2013-06-18 00:33:00,
2013-06-17 19:38:00,77.3,71.4,29.90,East,101,0.0,0.0,82,0.00,,,0.00,VWS V14.01,2013-06-18 00:38:00,
2013-06-17 19:43:00,77.1,71.2,29.90,East,101,0.0,0.0,82,0.00,,,0.00,VWS V14.01,2013-06-18 00:43:00,
2013-06-17 19:48:00,77.0,70.7,29.90,East,101,0.0,0.0,81,0.00,,,0.00,VWS V14.01,2013-06-18 00:48:00,
2013-06-17 19:53:00,76.9,70.6,29.90,East,101,0.0,0.0,81,0.00,,,0.00,VWS V14.01,2013-06-18 00:53:00,
2013-06-17 19:58:00,76.9,71.0,29.90,East,101,0.0,0.0,82,0.00,,,0.00,VWS V14.01,2013-06-18 00:58:00,
2013-06-17 20:00:00,78.5,71.8,29.89,East,101,0.0,0.0,80,0.00,,,0.00,VWS V14.01,2013-06-18 01:00:00,
2013-06-17 20:03:00,76.9,71.3,29.91,East,101,0.0,0.0,83,0.00,,,0.00,VWS V14.01,2013-06-18 01:03:00,
2013-06-17 20:08:00,76.9,71.0,29.91,ESE,103,4.0,4.0,82,0.00,,,0.00,VWS V14.01,2013-06-18 01:08:00,
2013-06-17 20:13:00,76.6,69.2,29.92,SSE,156,4.0,8.0,78,0.00,,,0.00,VWS V14.01,2013-06-18 01:13:00,
2013-06-17 20:18:00,76.2,68.5,29.92,East,88,1.0,8.0,77,0.00,,,0.00,VWS V14.01,2013-06-18 01:18:00,
2013-06-17 20:23:00,75.7,67.6,29.93,SE,124,1.0,8.0,76,0.00,,,0.00,VWS V14.01,2013-06-18 01:23:00,
2013-06-17 20:28:00,74.9,66.1,29.93,WSW,252,5.0,8.0,74,0.00,,,0.00,VWS V14.01,2013-06-18 01:28:00,
2013-06-17 20:30:00,77.4,71.5,29.90,East,101,0.0,0.0,82,0.00,,,0.00,VWS V14.01,2013-06-18 01:30:00,
2013-06-17 20:33:00,74.1,65.7,29.92,WSW,254,0.0,5.0,75,0.00,,,0.00,VWS V14.01,2013-06-18 01:33:00,
2013-06-17 20:38:00,73.6,65.6,29.92,WSW,256,0.0,5.0,76,0.00,,,0.00,VWS V14.01,2013-06-18 01:38:00,
2013-06-17 20:43:00,73.1,65.8,29.92,WSW,256,0.0,5.0,78,0.00,,,0.00,VWS V14.01,2013-06-18 01:43:00,
2013-06-17 20:48:00,72.8,65.2,29.92,WSW,255,0.0,5.0,77,0.00,,,0.00,VWS V14.01,2013-06-18 01:48:00,
2013-06-17 20:53:00,72.5,64.9,29.92,WSW,255,3.0,5.0,77,0.00,,,0.00,VWS V14.01,2013-06-18 01:53:00,
2013-06-17 20:58:00,72.2,64.6,29.92,WSW,255,1.0,5.0,77,0.00,,,0.00,VWS V14.01,2013-06-18 01:58:00,
2013-06-17 21:00:00,76.9,71.0,29.90,East,101,0.0,0.0,82,0.00,,,0.00,VWS V14.01,2013-06-18 02:00:00,
2013-06-17 21:03:00,71.9,64.7,29.92,WSW,255,0.0,3.0,78,0.00,,,0.00,VWS V14.01,2013-06-18 02:03:00,
2013-06-17 21:08:00,71.7,64.5,29.92,WSW,255,0.0,3.0,78,0.00,,,0.00,VWS V14.01,2013-06-18 02:08:00,
2013-06-17 21:13:00,71.5,64.7,29.92,WSW,255,0.0,3.0,79,0.00,,,0.00,VWS V14.01,2013-06-18 02:13:00,
2013-06-17 21:18:00,71.4,64.6,29.92,WSW,255,0.0,3.0,79,0.00,,,0.00,VWS V14.01,2013-06-18 02:18:00,
2013-06-17 21:23:00,71.3,64.5,29.92,WSW,255,0.0,3.0,79,0.00,,,0.00,VWS V14.01,2013-06-18 02:23:00,
2013-06-17 21:28:00,71.2,64.4,29.92,WSW,255,0.0,4.0,79,0.00,,,0.00,VWS V14.01,2013-06-18 02:28:00,
2013-06-17 21:30:00,74.5,65.7,29.93,WSW,248,0.0,8.0,74,0.00,,,0.00,VWS V14.01,2013-06-18 02:30:00,
2013-06-17 21:33:00,71.0,64.2,29.92,WSW,255,0.0,2.0,79,0.00,,,0.00,VWS V14.01,2013-06-18 02:33:00,
2013-06-17 21:38:00,71.0,64.5,29.92,WSW,255,0.0,3.0,80,0.00,,,0.00,VWS V14.01,2013-06-18 02:38:00,
2013-06-17 21:43:00,70.8,64.3,29.92,WSW,255,0.0,3.0,80,0.00,,,0.00,VWS V14.01,2013-06-18 02:43:00,
2013-06-17 21:48:00,70.8,64.3,29.92,WSW,255,0.0,3.0,80,0.00,,,0.00,VWS V14.01,2013-06-18 02:48:00,
2013-06-17 21:53:00,70.6,64.1,29.92,WSW,255,0.0,3.0,80,0.00,,,0.00,VWS V14.01,2013-06-18 02:53:00,
2013-06-17 21:58:00,70.5,64.4,29.92,WSW,255,1.0,3.0,81,0.00,,,0.00,VWS V14.01,2013-06-18 02:58:00,
2013-06-17 22:00:00,72.0,64.4,29.92,WSW,255,0.0,5.0,77,0.00,,,0.00,VWS V14.01,2013-06-18 03:00:00,
2013-06-17 22:03:00,70.4,64.3,29.92,WSW,255,0.0,1.0,81,0.00,,,0.00,VWS V14.01,2013-06-18 03:03:00,
2013-06-17 22:08:00,70.3,64.2,29.92,WSW,255,0.0,2.0,81,0.00,,,0.00,VWS V14.01,2013-06-18 03:08:00,
2013-06-17 22:13:00,70.2,64.1,29.92,West,259,0.0,4.0,81,0.00,,,0.00,VWS V14.01,2013-06-18 03:13:00,
2013-06-17 22:18:00,70.1,64.4,29.92,West,259,2.0,4.0,82,0.00,,,0.00,VWS V14.01,2013-06-18 03:18:00,
2013-06-17 22:23:00,70.1,64.4,29.92,West,259,0.0,4.0,82,0.00,,,0.00,VWS V14.01,2013-06-18 03:23:00,
2013-06-17 22:28:00,69.9,64.2,29.92,West,259,0.0,4.0,82,0.00,,,0.00,VWS V14.01,2013-06-18 03:28:00,
2013-06-17 22:30:00,71.1,64.3,29.92,WSW,255,0.0,4.0,79,0.00,,,0.00,VWS V14.01,2013-06-18 03:30:00,
2013-06-17 22:33:00,69.9,64.2,29.92,West,259,0.0,0.0,82,0.00,,,0.00,VWS V14.01,2013-06-18 03:33:00,
2013-06-17 22:38:00,69.7,64.0,29.92,West,259,0.0,2.0,82,0.00,,,0.00,VWS V14.01,2013-06-18 03:38:00,
2013-06-17 22:43:00,69.6,64.2,29.92,West,259,0.0,2.0,83,0.00,,,0.00,VWS V14.01,2013-06-18 03:43:00,
2013-06-17 22:48:00,69.4,64.0,29.92,West,259,0.0,2.0,83,0.00,,,0.00,VWS V14.01,2013-06-18 03:48:00,
2013-06-17 22:53:00,69.3,63.9,29.92,West,259,0.0,2.0,83,0.00,,,0.00,VWS V14.01,2013-06-18 03:53:00,
2013-06-17 22:58:00,69.2,63.8,29.92,West,259,0.0,2.0,83,0.00,,,0.00,VWS V14.01,2013-06-18 03:58:00,
2013-06-17 23:00:00,70.5,64.4,29.92,WSW,255,0.0,3.0,81,0.00,,,0.00,VWS V14.01,2013-06-18 04:00:00,
2013-06-17 23:03:00,69.1,63.7,29.92,West,259,0.0,0.0,83,0.00,,,0.00,VWS V14.01,2013-06-18 04:03:00,
2013-06-17 23:08:00,69.0,63.6,29.92,West,259,0.0,0.0,83,0.00,,,0.00,VWS V14.01,2013-06-18 04:08:00,
2013-06-17 23:13:00,69.0,63.6,29.92,West,259,0.0,0.0,83,0.00,,,0.00,VWS V14.01,2013-06-18 04:13:00,
2013-06-17 23:18:00,68.9,63.5,29.91,West,259,0.0,0.0,83,0.00,,,0.00,VWS V14.01,2013-06-18 04:18:00,
2013-06-17 23:23:00,68.8,63.4,29.92,West,259,0.0,0.0,83,0.00,,,0.00,VWS V14.01,2013-06-18 04:23:00,
2013-06-17 23:28:00,68.6,63.2,29.92,West,259,1.0,2.0,83,0.00,,,0.00,VWS V14.01,2013-06-18 04:28:00,
2013-06-17 23:30:00,69.9,64.2,29.92,West,259,0.0,4.0,82,0.00,,,0.00,VWS V14.01,2013-06-18 04:30:00,
2013-06-17 23:33:00,68.5,63.1,29.92,West,259,0.0,0.0,83,0.00,,,0.00,VWS V14.01,2013-06-18 04:33:00,
2013-06-17 23:38:00,68.4,63.0,29.92,West,259,0.0,0.0,83,0.00,,,0.00,VWS V14.01,2013-06-18 04:38:00,
2013-06-17 23:43:00,68.3,62.9,29.92,West,259,0.0,0.0,83,0.00,,,0.00,VWS V14.01,2013-06-18 04:43:00,
2013-06-17 23:48:00,68.2,63.2,29.92,West,259,0.0,0.0,84,0.00,,,0.00,VWS V14.01,2013-06-18 04:48:00,
2013-06-17 23:53:00,68.1,63.1,29.92,West,259,0.0,0.0,84,0.00,,,0.00,VWS V14.01,2013-06-18 04:53:00,
2013-06-17 23:58:00,67.9,62.9,29.92,West,259,0.0,0.0,84,0.00,,,0.00,VWS V14.01,2013-06-18 04:58:00,